#timestamp,LO_Frequency,Hit,StdDev 
1505509215.6,286047009.2,N
1505509235.5,286047009.0,N
1505509255.3,286047004.6,N
1505509275.1,286047003.2,N
1505509295.9,286047003.0,N
1505509315.7,286046998.9,N
1505509335.5,286046993.7,N
1505509355.3,286046994.2,N
1505509375.2,286046997.7,N
1505509395.0,286046995.0,N
1505509395.9,286046995.0,N
1505509415.7,286046993.5,N
1505509435.6,286046994.0,N
1505509455.4,286046992.8,N
1505509475.2,286046986.9,N
1505509495.1,286046987.8,N
1505509496.0,286046987.8,N
1505509515.8,286046986.8,N
1505509535.6,286046983.9,N
1505509555.5,286046985.5,N
1505509575.3,286046987.1,N
1505509595.1,286046984.2,N
1505509615.9,286046980.9,N
1505509635.7,286046981.0,N
1505509655.5,286046977.3,N
1505509675.4,286046976.3,N
1505509695.2,286046978.8,N
1505509715.0,286046978.1,N
1505509715.9,286046978.1,N
1505509735.7,286046975.8,N
1505509755.6,286046976.2,N
1505509775.4,286046976.1,N
1505509795.2,286046978.3,N
1505509815.1,286046975.8,N
1505509816.0,286046975.8,Y
1505509835.8,286046991.3,P
1505509855.6,286046996.3,N
1505509875.5,286046995.7,N
1505509895.3,286046994.0,N
1505509915.1,286046990.4,N
1505509935.9,286046989.5,N
1505509955.7,286046986.1,Y
1505509975.5,286046991.7,P
1505509995.4,286046993.5,P
1505510015.2,286046995.3,P
1505510035.0,286046998.4,N
1505510035.9,286046998.4,N
1505510055.8,286047000.4,N
1505510075.6,286046997.1,N
1505510095.4,286046992.3,N
1505510115.3,286046990.6,Y
1505510135.1,286047000.8,P
1505510155.8,286047000.9,N
1505510175.7,286046998.9,N
1505510195.5,286046995.5,N
1505510215.3,286046996.2,N
1505510235.2,286046995.4,N
1505510255.9,286046999.1,N
1505510275.7,286046995.6,N
1505510295.6,286046995.5,N
1505510315.4,286046996.8,N
1505510335.2,286047000.2,N
1505510355.0,286047000.7,N
1505510355.9,286047000.7,N
1505510375.8,286046998.8,N
1505510395.6,286046998.8,N
1505510415.4,286046998.5,N
1505510435.3,286046993.3,Y
1505510455.1,286047000.3,P
1505510475.8,286047006.7,P
1505510495.7,286047010.7,N
1505510515.5,286047013.6,N
1505510535.3,286047015.7,N
1505510555.2,286047019.0,N
1505510575.9,286047021.8,Y
1505510595.7,286047013.7,P
1505510615.6,286047015.5,P
1505510635.4,286047015.5,P
1505510655.2,286047016.1,Y
1505510675.1,286047002.5,P
1505510676.0,286047002.5,N
1505510695.8,286047005.2,N
1505510715.6,286047006.4,N
1505510735.5,286047012.2,Y
1505510755.3,286047006.7,P
1505510775.1,286047005.9,P
1505510795.9,286047005.1,P
1505510815.7,286047006.0,Y
1505510835.5,286046996.2,P
1505510855.4,286046999.5,N
1505510875.2,286046998.8,N
1505510895.0,286046996.8,N
1505510895.9,286046996.8,N
1505510915.8,286047002.8,N
1505510935.6,286047002.6,N
1505510955.4,286047002.7,N
1505510975.3,286047002.8,N
1505510995.1,286047001.4,N
1505510996.0,286047001.4,N
1505511015.8,286047003.3,N
1505511035.7,286047005.2,N
1505511055.5,286047003.2,N
1505511075.3,286047005.9,N
1505511095.2,286047009.2,Y
1505511115.9,286047010.6,P
1505511135.7,286047009.1,N
1505511155.6,286047006.6,N
1505511175.4,286047004.9,N
1505511195.2,286047007.8,N
1505511215.0,286047008.4,N
1505511216.0,286047008.4,Y
1505511235.8,286047003.6,P
1505511255.6,286047007.9,P
1505511275.4,286047003.8,N
1505511295.3,286046999.9,N
1505511315.1,286046999.1,N
1505511335.8,286046992.2,N
1505511355.7,286046987.4,N
1505511375.5,286046987.3,N
1505511395.3,286046985.5,N
1505511415.2,286046984.9,N
1505511435.9,286046982.1,N
1505511455.7,286046982.6,N
1505511475.6,286046981.5,N
1505511495.4,286046979.0,N
1505511515.2,286046979.5,N
1505511535.0,286046980.4,N
1505511536.0,286046980.4,N
1505511555.8,286046976.4,N
1505511575.6,286046972.9,N
1505511595.4,286046973.3,N
1505511615.3,286046971.7,N
1505511635.1,286046969.0,N
1505511655.8,286046969.0,N
1505511675.7,286046967.1,N
1505511695.5,286046968.8,N
1505511715.3,286046973.3,N
1505511735.2,286046973.2,N
1505511755.9,286046971.4,N
1505511775.7,286046970.2,N
1505511795.6,286046973.7,N
1505511815.4,286046975.6,N
1505511835.2,286046971.6,N
1505511855.1,286046970.2,Y
1505511856.0,286046970.2,P
1505511875.8,286046986.9,N
1505511895.6,286046987.8,N
1505511915.4,286046989.5,N
1505511935.3,286046989.0,N
1505511955.1,286046985.3,N
1505511975.8,286046986.3,N
1505511995.7,286046986.2,N
1505512015.5,286046987.9,N
1505512035.3,286046983.9,N
1505512055.2,286046976.3,Y
1505512075.0,286046989.0,P
1505512075.9,286046989.0,P
1505512095.7,286046992.1,P
1505512115.6,286046997.7,N
1505512135.4,286046997.0,N
1505512155.2,286047001.2,N
1505512175.1,286046998.1,N
1505512176.0,286046998.1,N
1505512195.8,286046999.9,N
1505512215.6,286047000.8,N
1505512235.5,286047002.0,N
1505512255.3,286047002.5,N
1505512275.1,286047000.6,N
1505512295.9,286046998.2,N
1505512315.7,286046997.0,N
1505512335.5,286046990.2,N
1505512355.3,286046994.3,N
1505512375.2,286046994.9,N
1505512395.0,286046999.2,N
1505512395.9,286046999.2,N
1505512415.7,286046998.0,N
1505512435.6,286046992.0,N
1505512455.4,286046991.1,N
1505512475.2,286046993.8,N
1505512495.1,286046995.1,N
1505512496.0,286046995.1,N
1505512515.8,286046999.9,N
1505512535.6,286047010.8,N
1505512555.5,286047014.4,N
1505512575.3,286047016.8,N
1505512595.1,286047016.5,N
1505512615.9,286047015.8,N
1505512635.7,286047018.4,N
1505512655.5,286047021.4,N
1505512675.3,286047024.0,N
1505512695.2,286047028.4,N
1505512715.0,286047026.2,N
1505512715.9,286047026.2,N
1505512735.7,286047028.2,N
1505512755.6,286047027.7,N
1505512775.4,286047027.3,N
1505512795.2,286047025.3,N
